Вернуться в каталог

STARLINK-37275

АктивенСвязьVLEO
NORAD 68725·PAYLOAD·🇺🇸 United States

Запущен Apr 14, 2026 с Cape Canaveral Space Force Station

Loading…

Ближайшие Пролёты (ближайшие 24 часа)

TLE

СвежийSource: CelesTrak SupGP

Эпоха: Sep 15, 2026, 04:35 UTC

1 68725C 26081AC  26258.19145833 -.00060572  00000+0 -17898-2 0  2586
2 68725  53.1575 230.2679 0001419  91.0294  44.2619 15.34416453    18

Отслеживайте STARLINK-37275 в реальном времени с AllMySat

Download on the App Store